カタログに戻る

STARLINK-31261

運用中通信VLEO
NORAD 59084·PAYLOAD·🇺🇸 United States

打ち上げ Feb 29, 2024 から Cape Canaveral Space Force Station

Loading…

次のパス (今後24時間)

TLE

最新Source: CelesTrak SupGP

元期: Sep 15, 2026, 03:04 UTC

1 59084C 24041L   26258.12826389  .00044461  00000+0  16105-2 0  2580
2 59084  43.0016 321.0148 0001508 268.8897  25.0287 15.27552700    12

AllMySatでSTARLINK-31261をリアルタイム追跡

Download on the App Store